Location: Newark
(27.9675°N, 86.8869°E)
Time: 18:23:41
(UTC+00:00)

deb Explorer IX - Pass Details

Date: 23 October 2019
Orbit: 546 x 1105 km, 38.8° (Epoch: 17 November)

Event Time Altitude Azimuth Distance (km) Brightness Sun altitude
Rises 10:33:24 0° 301° (WNW) 3,403 ? 12.5°
Reaches altitude 10° 10:35:52 10° 306° (NW) 2,550 ? 12.0°
Maximum altitude 10:41:56 55° 23° (NNE) 1,169 ? 10.7°
Drops below altitude 10° 10:48:49 10° 100° (E) 2,878 ? 9.2°
Sets 10:51:44 0° 105° (ESE) 3,874 ? 8.6°
